Flag for Germany Weather past 2 weeks in Wolfsburg, Lower Saxony, Germany

Now
66 °F

Broken clouds.


Feels Like: 66 °F
Forecast: 54 / 68 °F
Wind: 6 mph from Southwest

Location: Braunschweig

Current Time: Oct 1, 2014 at 2:41:15 PM

Latest Report: Oct 1, 2014 at 1:50 PM


Visibility: 6 mi

Pressure: 30.30 "Hg

Humidity: 73%

Dew point: 57 °F

Location of WolfsburgLocation

Historic Weather in Wolfsburg — Graph

°F

Wolfsburg temperature yesterday

Maximum temperature yesterday: 68 °F (at 2:20 PM)
Minimum temperature yesterday: 59 °F (at 6:50 AM)
Average temperature yesterday: 63 °F

Past Weeks' High & Low Weather Summary

 TemperatureHumidityPressure
High75 °F (Sep 16, 3:20 PM)100% (Sep 16, 9:20 PM)30.36 "Hg (Sep 16, 9:20 PM)
Low43 °F (Sep 23, 7:20 AM)47% (Sep 17, 3:50 PM)29.80 "Hg (Sep 24, 7:20 PM)
Average62 °F79%30.04 "Hg
* Reported Sep 16 1:20 PM — Oct 1 1:50 PM, Wolfsburg, Weather by CustomWeather, © 2014

Note: Actual official high and low records may vary slightly from our data, if they occured in-between our weather recording intervals... More about our weather records

Advertising

Wolfsburg weather history for previous 24 hours

 ConditionsComfort  
Time TempWeatherWind HumidityBarometerVisibility
1:50 PM
Oct 1
66 °FBroken clouds.6 mph73%30.30 "Hg6 mi
1:20 PM66 °FBroken clouds.6 mph73%30.33 "HgN/A
12:50 PM66 °FPartly sunny.7 mph78%30.33 "Hg6 mi
12:20 PM64 °FClear.6 mph78%30.33 "Hg6 mi
11:50 AM63 °FClear.5 mph88%30.33 "Hg6 mi
11:20 AM63 °FClear.6 mph88%30.33 "Hg5 mi
10:50 AM61 °FClear.5 mph94%30.33 "Hg4 mi
10:20 AM59 °FScattered clouds.5 mph100%30.33 "Hg4 mi
9:50 AM59 °FScattered clouds.2 mph100%30.33 "Hg3 mi
9:20 AM57 °FFog.No wind100%30.30 "Hg3 mi
8:50 AM55 °FFog.No wind100%30.30 "Hg3 mi
8:20 AM54 °FFog.No wind100%30.30 "Hg2 mi
7:50 AM54 °FSleet. Overcast.2 mph100%30.30 "Hg1 mi
7:20 AM54 °FFog.3 mph100%30.30 "Hg2 mi
6:50 AM54 °FFog.No wind100%30.30 "Hg2 mi
6:20 AM54 °FFog.No wind100%30.30 "Hg2 mi
9:20 PM
Sep 30
59 °FClear.3 mph100%30.27 "Hg4 mi
8:50 PM59 °FClear.No wind100%30.27 "Hg4 mi
8:20 PM59 °FClear.5 mph100%30.27 "Hg4 mi
7:50 PM61 °FSunny.6 mph88%30.27 "Hg10 mi
7:20 PM63 °FScattered clouds.6 mph88%30.24 "HgN/A
6:50 PM63 °FScattered clouds.5 mph94%30.24 "HgN/A
6:20 PM64 °FScattered clouds.6 mph83%30.24 "HgN/A
5:50 PM64 °FScattered clouds.7 mph88%30.24 "HgN/A
5:20 PM66 °FPartly sunny.7 mph83%30.24 "HgN/A
4:50 PM66 °FBroken clouds.6 mph83%30.24 "HgN/A
4:20 PM64 °FPartly sunny.7 mph88%30.24 "HgN/A
3:50 PM66 °FPartly sunny.8 mph83%30.24 "HgN/A
3:20 PM68 °FBroken clouds.13 mph78%30.24 "HgN/A
2:50 PM68 °FPartly sunny.9 mph83%30.24 "HgN/A
2:20 PM68 °FMostly cloudy.9 mph83%30.24 "HgN/A
Weather by CustomWeather, © 2014

See weather overviewHow to use our weather pages